Location: Kawakawa
(35.3830°S, 174.0670°E)
Time: 09:30:53
(UTC+13:00)

Cosmos 2228 Rocket - Pass Details

Date: 24 January 2019
Orbit: 617 x 653 km, 82.5° (Epoch: 16 October)

Event Time Altitude Azimuth Distance (km) Brightness Sun altitude
Exits shadow 21:15:04 - 37° (NE) 2,205 5.3 -7.6°
Reaches altitude 10° 21:15:45 10° 42° (NE) 1,986 5.0 -7.7°
Maximum altitude 21:19:06 22° 92° (E) 1,388 4.4 -8.3°
Drops below altitude 10° 21:22:28 10° 141° (SE) 2,010 5.6 -8.9°
Sets 21:25:08 0° 156° (SSE) 2,929 6.6 -9.4°
